George Downer Airport

Jump to: basic info | weather | frequencies | runways | comments

Related pages: nearby airports | nearby navaids | notams | map

Basic information (top)

Codes: AIV KAIV
Location: lon 33.106499, lat -88.197800, elev 150 ft / 46 m msl
Status: small_airport

Weather (top)

Current conditions for Golden Triangle Regional Airport 29nm (53km) NW (rec'd 2014/09/01 19:45Z):

KGTR 011945Z 19006KT 10SM BKN055 33/21 A3005

Airport forecast for Golden Triangle Regional Airport 29nm (53km) NW (rec'd 2014/09/01 18:39Z):

TAF KGTR 011736Z 0118/0218 19008KT P6SM SCT050 
     FM020000 17005KT P6SM FEW060 
     FM021100 18004KT 5SM BR SCT015 
     FM021400 21005KT P6SM BKN025 
     FM021600 22006KT P6SM SCT030

Frequencies (top)

Verify before use: may be inaccurate or out of date.

UNIC: 122.8 MHz (CTAF/UNICOM)

Runways (top)

06/24: 4,970 x 80 ft (1,515 x 24 m) — paved — lighted — threshold 06 displaced 200 ft (61 m) — threshold 24 displaced 615 ft (187 m)

Latest comments (top)

No comments yet for George Downer Airport

More... (top)

See also NOTAMs and nearby airports and navaids, or visit the George Downer Airport page at the main OurAirports website..